Lincoln, NE

8:05 PM CST on November 11, 2019 (GMT -0600)
Lincoln Municipal

Weather History for KLNK - September, 2019

Change the Weather History Date:

Sunday, September 22, 2019

  Actual Average Record
Temperature  
Mean Temperature 66 °F 63 °F  
Max Temperature 77 °F 76 °F 99 °F (1937)
Min Temperature 55 °F 50 °F 27 °F (1995)
Degree Days  
Heating Degree Days 0 4  
Month to date heating degree days 0 47  
Since 1 July heating degree days 0 53  
Cooling Degree Days 1 3  
Month to date cooling degree days 239 108  
Year to date cooling degree days 1291 1143  
Growing Degree Days 17 (Base 50)    
Moisture  
Dew Point 58 °F    
Average Humidity 67    
Maximum Humidity 93    
Minimum Humidity 41    
Precipitation  
Precipitation 1.15 in 0.09 in 2.62 in (2001)
Month to date precipitation 2.92 2.32  
Year to date precipitation 27.58 23.90  
Snow  
Snow 0.00 in 0.00 in T in (2001)
Month to date snowfall 0.0 0.0  
Since 1 July snowfall 0.0 0.0  
Since 1 September snowfall 0.0 0.0  
Snow Depth 0.00 in    
Sea Level Pressure  
Sea Level Pressure 29.92 in    
Wind  
Wind Speed 8 mph (NNW)    
Max Wind Speed 26 mph    
Max Gust Speed 35 mph    
Visibility 8 miles    
Events Rain    
T = Trace of Precipitation, MM = Missing Value Source: NWS Daily Summary

Daily Weather History Graph

Daily Weather History Graph

Search for Another Location

Airport or City:

Astronomy

Sep. 22, 2019 Rise Set
Actual Time 7:14 AM CDT 7:24 PM CDT
Civil Twilight 6:46 AM CDT 7:51 PM CDT
Nautical Twilight 6:14 AM CDT 8:23 PM CDT
Astronomical Twilight 5:42 AM CDT 8:56 PM CDT
Moon 12:02 AM CDT (9/22) 3:23 PM CDT (9/22)
Length of Visible Light 13h 04m
Length of Day
12h 10m
Last Quarter, 44% of the Moon is Illuminated
Sep 22
Last Quarter
Sep 28
New
Oct 5
First Quarter
Oct 13
Full
Oct 21
Last Quarter

Hourly Weather History & Observations

Time (CDT) Temp. Dew Point Humidity Pressure Visibility Wind Dir Wind Speed Gust Speed Precip Events Conditions
12:18 AM 68.0 °F 64.0 °F 87% 29.90 in 10.0 mi West 15.0 mph - 0.01 in Rain Light Rain
12:54 AM 66.9 °F 63.0 °F 87% 29.87 in 10.0 mi Calm Calm - 0.01 in Rain Light Rain
1:54 AM 68.0 °F 63.0 °F 84% 29.86 in 10.0 mi WNW 11.5 mph - 0.01 in   Scattered Clouds
2:06 AM 66.9 °F 63.0 °F 87% 29.89 in 10.0 mi West 8.1 mph - N/A   Mostly Cloudy
2:26 AM 66.9 °F 63.0 °F 87% 29.90 in 10.0 mi Calm Calm - N/A   Scattered Clouds
2:54 AM 66.0 °F 62.1 °F 87% 29.87 in 10.0 mi North 3.5 mph - N/A   Partly Cloudy
3:54 AM 66.0 °F 63.0 °F 90% 29.84 in 8.0 mi ESE 9.2 mph - 0.06 in Rain Light Rain
4:54 AM 66.0 °F 63.0 °F 90% 29.86 in 8.0 mi Calm Calm - 0.11 in Rain Rain
5:21 AM 66.0 °F 64.0 °F 93% 29.90 in 8.0 mi North 3.5 mph - 0.07 in Rain Light Rain
5:29 AM 64.9 °F 63.0 °F 93% 29.89 in 2.5 mi NW 5.8 mph - 0.07 in Rain Heavy Rain
5:37 AM 64.9 °F 63.0 °F 93% 29.89 in 1.0 mi Variable 4.6 mph - 0.24 in Rain Heavy Rain
5:51 AM 64.4 °F 62.6 °F 94% 29.90 in 2.0 mi NNW 12.7 mph - 0.36 in Rain Heavy Rain
5:54 AM 64.0 °F 62.1 °F 93% 29.87 in 2.0 mi NNW 16.1 mph - 0.39 in Rain Heavy Rain
6:01 AM 63.0 °F 61.0 °F 93% 29.90 in 2.5 mi North 15.0 mph - 0.04 in Rain Heavy Rain
6:12 AM 63.0 °F 60.1 °F 90% 29.91 in 2.5 mi North 13.8 mph - 0.13 in Rain Heavy Rain
6:19 AM 63.0 °F 60.1 °F 90% 29.90 in 3.0 mi North 16.1 mph - 0.18 in Rain Heavy Rain
6:34 AM 61.0 °F 57.9 °F 90% 29.90 in 3.0 mi North 25.3 mph 33.4 mph 0.28 in Rain Heavy Rain
6:54 AM 59.0 °F 55.9 °F 90% 29.89 in 4.0 mi NNW 23.0 mph - 0.36 in Rain Heavy Rain
7:28 AM 59.0 °F 55.9 °F 90% 29.97 in 5.0 mi NNW 20.7 mph 28.8 mph 0.10 in Rain Rain
7:40 AM 59.0 °F 55.0 °F 87% 29.95 in 2.5 mi NNW 24.2 mph 35.7 mph 0.14 in Rain Heavy Rain
7:54 AM 57.9 °F 54.0 °F 87% 29.90 in 5.0 mi NNE 19.6 mph - 0.21 in Rain Rain
8:32 AM 59.0 °F 55.0 °F 87% 29.93 in 10.0 mi NNW 15.0 mph - 0.01 in   Mostly Cloudy
8:54 AM 59.0 °F 55.0 °F 87% 29.92 in 10.0 mi North 15.0 mph - 0.01 in   Scattered Clouds
9:54 AM 61.0 °F 55.9 °F 83% 29.93 in 10.0 mi North 6.9 mph - N/A   Overcast
10:54 AM 66.9 °F 57.0 °F 70% 29.92 in 10.0 mi North 8.1 mph - N/A   Clear
11:54 AM 69.1 °F 55.9 °F 63% 29.94 in 10.0 mi North 9.2 mph - N/A   Partly Cloudy
12:54 PM 69.1 °F 55.9 °F 63% 29.94 in 10.0 mi NNW 12.7 mph - N/A   Mostly Cloudy
1:54 PM 73.0 °F 53.1 °F 49% 29.91 in 10.0 mi North 12.7 mph 19.6 mph N/A   Partly Cloudy
2:54 PM 75.0 °F 54.0 °F 48% 29.91 in 10.0 mi NW 9.2 mph - N/A   Clear
3:54 PM 75.9 °F 55.0 °F 48% 29.91 in 10.0 mi North 10.4 mph - N/A   Partly Cloudy
4:54 PM 75.9 °F 52.0 °F 43% 29.91 in 10.0 mi NNW 9.2 mph 17.3 mph N/A   Partly Cloudy
5:54 PM 75.9 °F 50.0 °F 40% 29.93 in 10.0 mi WNW 6.9 mph - N/A   Clear
6:54 PM 73.9 °F 51.1 °F 45% 29.93 in 10.0 mi West 3.5 mph - N/A   Clear
7:54 PM 71.1 °F 54.0 °F 55% 29.96 in 10.0 mi WNW 4.6 mph - N/A   Clear
8:54 PM 62.1 °F 55.0 °F 78% 29.99 in 10.0 mi Calm Calm - N/A   Clear
9:54 PM 61.0 °F 55.9 °F 83% 30.01 in 10.0 mi Calm Calm - N/A   Clear
10:54 PM 60.1 °F 55.9 °F 86% 30.02 in 10.0 mi Calm Calm - N/A   Clear
11:54 PM 55.9 °F 53.1 °F 90% 30.03 in 10.0 mi Calm Calm - N/A   Clear